Location: Unspecified
(0.0000°N, 0.0000°E)
Time: 14:24:32
(UTC+00:00)

CZ-2D R/B - Pass Details

Date: 14 November 2025
Orbit: 529 x 607 km, 34.9° (Epoch: 09 December)

Event Time Altitude Azimuth Distance (km) Brightness Sun altitude
Exits shadow 04:30:25 30° 333° (NNW) 965 ? -17.5°
Drops below altitude 10° 04:33:40 10° 26° (NNE) 1,756 ? -16.8°
Sets 04:36:06 0° 37° (NE) 2,646 ? -16.2°
